Back to catalog

STARLINK-36258

AliveCommunicationsVLEO
NORAD 67104·PAYLOAD·🇺🇸 United States

Launched Dec 15, 2025 from Cape Canaveral Space Force Station

Loading…

Next Passes (next 24 hours)

TLE

FreshSource: CelesTrak SupGP

Epoch: Sep 14, 2026, 22:50 UTC

1 67104C 25299C   26257.95187500 -.00051670  00000+0 -18713-2 0  2571
2 67104  43.0023 180.3510 0001326 264.2611 288.0485 15.27607034    15

Track STARLINK-36258 in real time with AllMySat

Download on the App Store